Location: Bishopstone
(51.0167°N, 1.9000°W)
Time: 14:07:39
(UTC+00:00)

Cosmos 2082 - Pass Details

Date: 16 September 2019
Orbit: 834 x 855 km, 71.0° (Epoch: 22 October)

Event Time Altitude Azimuth Distance (km) Brightness Sun altitude
Exits shadow 21:05:32 39° 67° (ENE) 1,270 4.4 -24.6°
Drops below altitude 10° 21:09:26 10° 38° (NE) 2,495 6.2 -25.1°
Sets 21:11:58 0° 33° (NNE) 3,433 7.0 -25.4°
